Location: Wildlife_Club
(35.6000°N, 81.4330°W)
Time: 16:50:15
(UTC-04:00)

Amateur Radio Satellites - All Passes

Search period start: 25 September 2016 16:20
Search period end: 26 September 2016 16:20
Location: Wildlife_Club, 35.6000°N, 81.4330°W

Satellite Date Start Highest point End Downlink Frequencies (MHz)
Time Altitude Azimuth
SWISSCUBE 25 Sep 16:21:09 16:25:47 50° 287° (WNW) 16:30:26 437.505
AIST 1 25 Sep 16:28:52 16:30:45 13° 72° (ENE) 16:32:38
BEESAT 25 Sep 16:34:36 16:39:04 41° 288° (WNW) 16:43:32 436.000
Cosmos 2504 25 Sep 16:45:37 16:53:01 75° 266° (W) 17:00:57 435.465 / 435.565
MOZHAYETS 4 25 Sep 16:47:56 16:52:24 45° 99° (E) 16:56:50
BRITE-PL 25 Sep 16:50:15 16:52:46 13° 63° (ENE) 16:55:19 437.365/2234.400
ITAMSAT 1 25 Sep 16:52:23 16:55:57 19° 266° (W) 16:59:32 435.822/435.867
PHONESAT 2.4 25 Sep 16:54:12 16:57:09 66° 19° (NNE) 17:00:07 2401.200-2431.200
KKS-1 25 Sep 17:33:10 17:37:36 89° 300° (WNW) 17:42:02 437.445
HORYU 2 25 Sep 17:48:27 17:52:50 83° 78° (ENE) 17:57:16 437.375
SO-50 25 Sep 17:51:00 17:54:24 19° 312° (NW) 17:57:46 436.795
Cosmos 2491 25 Sep 17:54:04 18:00:11 20° 292° (WNW) 18:06:22 435.465 / 435.565
CUBESAT XI-V 25 Sep 18:00:28 18:04:44 33° 97° (E) 18:08:56 437.345
O/OREOS (USA 219) 25 Sep 18:00:37 18:04:47 33° 64° (ENE) 18:08:54 437.305
AO-7 25 Sep 18:04:16 18:09:32 18° 267° (W) 18:14:49 29.400- 29.500
AIST 1 25 Sep 18:04:31 18:08:34 42° 268° (W) 18:12:35
STARS 25 Sep 18:14:23 18:18:42 65° 285° (WNW) 18:23:01 437.465
NOAA 15 25 Sep 18:22:54 18:27:57 47° 71° (ENE) 18:33:02 137.62
BRITE-PL 25 Sep 18:24:48 18:30:28 82° 257° (WSW) 18:36:11 437.365/2234.400
MOZHAYETS 4 25 Sep 18:26:22 18:29:09 16° 294° (WNW) 18:31:56
LilacSat-2 25 Sep 18:27:59 18:31:23 33° 73° (ENE) 18:34:47 437.200
GOMX 1 25 Sep 18:28:32 18:33:47 49° 74° (ENE) 18:38:51 467.674
Cubesat XI-IV 25 Sep 18:29:28 18:34:27 43° 71° (ENE) 18:39:28 437.490
CUTE-I 25 Sep 18:30:28 18:35:29 44° 71° (ENE) 18:40:30 437.470
PHONESAT 2.4 25 Sep 18:30:48 18:33:06 20° 213° (SSW) 18:35:24 2401.200-2431.200
NOAA 18 25 Sep 18:48:40 18:54:00 56° 72° (ENE) 18:59:20 137.9125
DOVE 4 25 Sep 19:03:52 19:08:46 47° 74° (ENE) 19:13:27 437.250
RS-15 25 Sep 19:12:14 19:19:50 21° 99° (E) 19:27:37 29.354- 29.394
STRAND 1 25 Sep 19:37:31 19:40:36 16° 93° (E) 19:43:40 437.568
CUBESAT XI-V 25 Sep 19:38:21 19:41:51 21° 292° (WNW) 19:45:19 437.345
O/OREOS (USA 219) 25 Sep 19:40:35 19:43:55 20° 259° (W) 19:47:14 437.305
CUSAT 1 25 Sep 19:45:48 19:51:12 47° 90° (E) 19:57:58 437.405
HO-68 25 Sep 19:55:48 20:02:35 48° 68° (ENE) 20:09:23 435.675
CUTE 1.7 + AOD 2 25 Sep 20:00:59 20:04:41 31° 72° (ENE) 20:08:25 437.475
CANX-2 25 Sep 20:01:30 20:05:22 36° 73° (ENE) 20:09:16 2200.000
LilacSat-2 25 Sep 20:04:02 20:05:46 13° 267° (W) 20:07:30 437.200
NOAA 15 25 Sep 20:04:19 20:07:55 18° 266° (W) 20:11:31 137.62
Cosmos 2499 25 Sep 20:04:28 20:10:48 28° 74° (ENE) 20:17:29 435.465 / 435.565
SEEDS 25 Sep 20:07:36 20:11:03 25° 70° (ENE) 20:14:30 437.485
GOMX 1 25 Sep 20:08:16 20:11:58 19° 267° (W) 20:15:38 467.674
Cubesat XI-IV 25 Sep 20:10:49 20:14:40 20° 266° (W) 20:18:30 437.490
CUTE-I 25 Sep 20:11:57 20:15:41 19° 266° (W) 20:19:26 437.470
CUBEBUG 2 25 Sep 20:24:59 20:28:06 20° 70° (ENE) 20:31:12 437.445
GONETS M04 25 Sep 20:25:43 20:34:13 49° 78° (ENE) 20:42:35
NOAA 18 25 Sep 20:31:38 20:34:57 16° 267° (W) 20:38:16 137.9125
CINEMA 3 25 Sep 20:35:16 20:39:51 70° 259° (W) 20:44:14 145.822/145.860
AAUSAT CUBESAT 2 25 Sep 20:37:35 20:41:09 29° 72° (ENE) 20:44:46 437.432
DOVE 4 25 Sep 20:43:19 20:46:34 17° 266° (W) 20:49:45 437.250
FUNcube-1 25 Sep 20:44:50 20:46:27 12° 66° (ENE) 20:48:06 145.935
UWE-3 25 Sep 20:48:16 20:51:38 24° 71° (ENE) 20:54:59 435.000/436.395/437.385
DANDE 25 Sep 20:52:18 20:56:46 63° 94° (E) 21:02:48 436.750
STRAND 1 25 Sep 21:15:02 21:20:01 52° 287° (WNW) 21:24:59 437.568
COMPASS 1 25 Sep 21:18:38 21:22:45 65° 259° (W) 21:26:55 437.405
RS-15 25 Sep 21:18:58 21:30:31 88° 301° (WNW) 21:42:44 29.354- 29.394
ZACube-1 25 Sep 21:22:54 21:26:45 37° 73° (ENE) 21:30:34 437.345
Oscar 11 25 Sep 21:25:34 21:29:35 40° 73° (ENE) 21:33:38 145.826/435.025
CUSAT 1 25 Sep 21:28:44 21:33:36 25° 293° (WNW) 21:39:22 437.405
CUTE 1.7 + AOD 2 25 Sep 21:37:37 21:40:32 18° 266° (W) 21:43:29 437.475
CANX-2 25 Sep 21:38:50 21:41:19 15° 267° (W) 21:43:49 2200.000
ISS 25 Sep 21:39:51 21:43:05 85° 315° (NW) 21:46:21 145.825
SEEDS 25 Sep 21:43:23 21:46:39 22° 265° (W) 21:49:57 437.485
HO-68 25 Sep 21:44:24 21:50:26 29° 264° (W) 21:56:28 435.675
AO-85 25 Sep 21:49:16 21:54:21 49° 115° (ESE) 21:59:11 145.980
Cosmos 2499 25 Sep 21:56:50 22:04:02 50° 269° (W) 22:11:48 435.465 / 435.565
CUBEBUG 2 25 Sep 22:00:56 22:04:34 27° 263° (W) 22:08:08 437.445
HUMSAT D 25 Sep 22:06:11 22:09:15 21° 70° (ENE) 22:12:21 437.325/437.525
PRISM 25 Sep 22:09:46 22:13:51 60° 101° (E) 22:17:54 437.425
JUGNU 25 Sep 22:11:50 22:14:50 14° 171° (S) 22:17:50 437.505
AAUSAT CUBESAT 2 25 Sep 22:13:42 22:16:37 19° 266° (W) 22:19:34 437.432
FUNcube-1 25 Sep 22:18:17 22:22:16 46° 261° (W) 22:26:15 145.935
DELFI C3 25 Sep 22:18:43 22:22:40 66° 77° (ENE) 22:26:40 145.870
GONETS M04 25 Sep 22:23:11 22:30:35 32° 275° (W) 22:37:57
UWE-3 25 Sep 22:24:44 22:28:01 22° 264° (W) 22:31:17 435.000/436.395/437.385
ANTELSAT 25 Sep 22:28:30 22:29:23 10° 92° (E) 22:30:17 437.575/2403.000
DANDE 25 Sep 22:37:55 22:40:34 14° 299° (WNW) 22:43:33 436.750
TIGRISAT 25 Sep 22:47:50 22:50:49 18° 95° (E) 22:53:49 435.000
ZACube-1 25 Sep 23:00:59 23:03:09 14° 267° (W) 23:05:20 437.345
Oscar 11 25 Sep 23:03:34 23:05:52 14° 267° (W) 23:08:11 145.826/435.025
ISS 25 Sep 23:18:32 23:20:00 12° 335° (NNW) 23:21:29 145.825
UNISAT 6 25 Sep 23:26:31 23:30:50 54° 100° (E) 23:35:15 437.425
AO-85 25 Sep 23:31:06 23:35:01 21° 309° (NW) 23:38:46 145.980
RS-15 25 Sep 23:35:13 23:44:53 28° 323° (NW) 23:54:56 29.354- 29.394
ESTCUBE 1 25 Sep 23:41:19 23:45:34 41° 73° (ENE) 23:49:50 437.505/2401.250
HUMSAT D 25 Sep 23:41:23 23:44:43 25° 264° (W) 23:48:06 437.325/437.525
M-CUBED/EXP-1 PRIME 25 Sep 23:45:39 23:49:04 24° 67° (ENE) 23:52:17 437.505
VELOX 1 25 Sep 23:51:38 23:55:19 26° 70° (ENE) 23:59:01 145.980
DX 1 25 Sep 23:52:44 23:55:31 17° 67° (ENE) 23:58:18 434.975-435.025
JUGNU 25 Sep 23:59:28 00:03:05 17° 181° (S) 00:06:41 437.505
CUBEBUG 1 26 Sep 00:01:37 00:05:47 43° 73° (ENE) 00:10:00 437.445
ANTELSAT 26 Sep 00:02:03 00:06:22 58° 285° (WNW) 00:10:46 437.575/2403.000
NANOSAT C BR1 26 Sep 00:07:05 00:09:43 16° 94° (E) 00:12:19 145.865
TIGRISAT 26 Sep 00:23:33 00:27:33 35° 288° (WNW) 00:31:36 435.000
QB50P2 26 Sep 00:27:12 00:31:00 32° 98° (E) 00:34:48 145.880/145.840
POLYITAN 1 26 Sep 00:29:26 00:33:15 32° 98° (E) 00:37:02 437.675
50 SAT 26 Sep 00:31:09 00:34:44 73° 77° (ENE) 00:38:22 437.505
AISAT 26 Sep 00:43:13 00:47:40 74° 257° (WSW) 00:52:08 437.250
AUBIESAT-1 26 Sep 00:43:53 00:48:06 83° 254° (WSW) 00:52:03 437.475
SO-50 26 Sep 00:43:55 00:47:25 21° 50° (NE) 00:50:51 436.795
TISAT 1 26 Sep 00:50:22 00:51:32 11° 65° (ENE) 00:52:41 437.305
SRMSAT 26 Sep 00:51:43 00:54:57 15° 173° (S) 00:58:12 437.500
SPROUT 26 Sep 00:53:39 00:57:54 71° 76° (ENE) 01:02:09 437.525
JAS-2 26 Sep 00:55:07 01:02:48 53° 99° (E) 01:10:03 435.910
UKube-1 26 Sep 01:02:53 01:07:13 83° 76° (ENE) 01:11:33 .
UNISAT 6 26 Sep 01:05:19 01:07:05 12° 294° (WNW) 01:08:52 437.425
QB50P1 26 Sep 01:10:05 01:14:18 78° 282° (WNW) 01:18:29 145.935-145.965
DUCHIFAT 1 26 Sep 01:10:36 01:14:48 89° 283° (WNW) 01:18:59 145.980
ESTCUBE 1 26 Sep 01:19:50 01:22:31 15° 267° (W) 01:25:13 437.505/2401.250
M-CUBED/EXP-1 PRIME 26 Sep 01:19:55 01:23:27 24° 258° (WSW) 01:26:48 437.505
BUGSAT 1 26 Sep 01:22:56 01:26:48 46° 99° (E) 01:30:40 437.445
POPSAT HIP 1 26 Sep 01:23:27 01:27:34 54° 286° (WNW) 01:31:40 437.405
DX 1 26 Sep 01:27:18 01:31:22 38° 261° (W) 01:35:28 434.975-435.025
VELOX 1 26 Sep 01:28:03 01:31:41 24° 264° (W) 01:35:19 145.980
BEESAT 3 26 Sep 01:36:48 01:40:22 35° 114° (ESE) 01:43:58 437.485
CUBEBUG 1 26 Sep 01:39:54 01:42:15 14° 267° (W) 01:44:35 437.445
NANOSAT C BR1 26 Sep 01:41:43 01:45:30 34° 288° (WNW) 01:49:18 145.865
JUGNU 26 Sep 01:48:57 01:51:18 12° 192° (SSW) 01:53:39 437.505
SWISSCUBE 26 Sep 01:49:50 01:51:49 13° 64° (ENE) 01:53:47 437.505
RS-15 26 Sep 01:57:43 02:03:43 14° 359° (N) 02:09:46 29.354- 29.394
BEESAT 26 Sep 02:02:14 02:04:58 15° 65° (ENE) 02:07:42 436.000
QB50P2 26 Sep 02:03:42 02:06:31 18° 292° (WNW) 02:09:22 145.880/145.840
POLYITAN 1 26 Sep 02:05:57 02:08:46 18° 292° (WNW) 02:11:35 437.675
Cosmos 2491 26 Sep 02:08:31 02:16:13 32° 73° (ENE) 02:23:51 435.465 / 435.565
TISAT 1 26 Sep 02:22:33 02:26:40 54° 259° (W) 02:30:47 437.305
SO-50 26 Sep 02:23:49 02:27:59 37° 246° (WSW) 02:32:04 436.795
BEESAT 2 26 Sep 02:27:08 02:31:01 69° 117° (ESE) 02:34:58 435.950
Oscar 19 26 Sep 02:38:52 02:43:57 57° 101° (E) 02:48:58 437.125/150
SRMSAT 26 Sep 02:39:45 02:43:22 17° 183° (S) 02:46:58 437.500
JAS-2 26 Sep 02:40:41 02:47:18 31° 295° (WNW) 02:53:44 435.910
BUGSAT 1 26 Sep 03:00:20 03:01:45 12° 294° (WNW) 03:03:09 437.445
YUBILEINY 26 Sep 03:05:25 03:13:03 35° 86° (E) 03:20:39 435.215
ITUPSAT 1 26 Sep 03:09:54 03:14:38 80° 76° (ENE) 03:19:26 437.325
BEESAT 3 26 Sep 03:15:32 03:18:08 17° 310° (NW) 03:20:45 437.485
Gurwin Techsat 1B 26 Sep 03:18:23 03:23:41 65° 101° (E) 03:28:56 435.225
SWISSCUBE 26 Sep 03:24:20 03:29:02 62° 259° (W) 03:33:45 437.505
ITAMSAT 1 26 Sep 03:28:01 03:31:46 20° 94° (E) 03:35:32 435.822/435.867
Cosmos 2504 26 Sep 03:32:02 03:35:33 14° 81° (E) 03:38:59 435.465 / 435.565
BEESAT 26 Sep 03:37:43 03:42:18 49° 260° (W) 03:46:56 436.000
MOZHAYETS 4 26 Sep 03:47:05 03:51:02 30° 71° (ENE) 03:55:01
Cosmos 2491 26 Sep 04:04:51 04:13:14 50° 271° (W) 04:21:34 435.465 / 435.565
BEESAT 2 26 Sep 04:08:23 04:09:16 11° 314° (NW) 04:10:11 435.950
ISS 26 Sep 04:10:17 04:13:14 29° 35° (NE) 04:16:10 145.825
RS-15 26 Sep 04:12:48 04:22:46 27° 35° (NE) 04:32:35 29.354- 29.394
AO-7 26 Sep 04:13:23 04:20:35 32° 98° (E) 04:27:43 29.400- 29.500
Oscar 19 26 Sep 04:19:48 04:22:44 15° 296° (WNW) 04:25:39 437.125/150
KKS-1 26 Sep 04:27:59 04:32:20 56° 74° (ENE) 04:36:43 437.445
SRMSAT 26 Sep 04:29:49 04:31:45 12° 193° (SSW) 04:33:41 437.500
AIST 2 26 Sep 04:30:29 04:34:24 47° 115° (ESE) 04:38:21 435.215
Gurwin Techsat 1B 26 Sep 05:00:14 05:03:02 15° 297° (WNW) 05:05:50 435.225
CUBESAT XI-V 26 Sep 05:01:06 05:04:51 24° 69° (ENE) 05:08:37 437.345
YUBILEINY 26 Sep 05:01:13 05:09:31 46° 283° (WNW) 05:17:52 435.215
PCSat 26 Sep 05:01:52 05:06:59 44° 111° (ESE) 05:12:06 145.827
ITAMSAT 1 26 Sep 05:06:28 05:11:22 42° 289° (WNW) 05:16:16 435.822/435.867
STARS 26 Sep 05:07:38 05:12:01 75° 75° (ENE) 05:16:24 437.465
Cosmos 2504 26 Sep 05:20:25 05:27:59 81° 277° (W) 05:35:14 435.465 / 435.565
MOZHAYETS 4 26 Sep 05:24:40 05:28:10 22° 265° (W) 05:31:42
HORYU 2 26 Sep 05:43:07 05:46:20 19° 95° (E) 05:49:32 437.375
ISS 26 Sep 05:46:58 05:49:37 23° 230° (SW) 05:52:16 145.825
AO-7 26 Sep 06:05:36 06:13:30 51° 294° (WNW) 06:21:24 29.400- 29.500
KKS-1 26 Sep 06:08:04 06:09:12 11° 268° (W) 06:10:19 437.445
AIST 2 26 Sep 06:10:41 06:13:07 15° 312° (NW) 06:15:34 435.215
CUSAT 1 26 Sep 06:23:31 06:30:24 34° 71° (ENE) 06:36:19 437.405
RS-15 26 Sep 06:24:57 06:37:25 83° 61° (ENE) 06:49:30 29.354- 29.394
AO-85 26 Sep 06:25:18 06:27:55 16° 48° (NE) 06:30:26 145.980
AIST 1 26 Sep 06:30:01 06:34:23 65° 278° (W) 06:38:45
BRITE-PL 26 Sep 06:33:56 06:38:28 40° 97° (E) 06:42:38 437.365/2234.400
GOMX 1 26 Sep 06:35:31 06:37:56 15° 92° (E) 06:40:18 467.674
CUBESAT XI-V 26 Sep 06:37:59 06:42:03 29° 264° (W) 06:46:09 437.345
NOAA 15 26 Sep 06:41:43 06:45:49 22° 95° (E) 06:49:52 137.62
PCSat 26 Sep 06:46:15 06:50:32 23° 307° (NW) 06:54:51 145.827
Cubesat XI-IV 26 Sep 06:50:15 06:54:20 22° 95° (E) 06:58:25 437.490
STRAND 1 26 Sep 06:50:47 06:54:05 18° 65° (ENE) 06:57:25 437.568
CUTE-I 26 Sep 06:51:02 06:55:11 23° 95° (E) 06:59:20 437.470
DOVE 4 26 Sep 07:07:51 07:09:41 13° 92° (E) 07:11:31 437.250
NOAA 18 26 Sep 07:14:04 07:18:48 30° 97° (E) 07:23:32 137.9125
HORYU 2 26 Sep 07:18:56 07:22:53 32° 289° (WNW) 07:26:51 437.375
Cosmos 2504 26 Sep 07:20:48 07:22:24 11° 295° (WNW) 07:23:59 435.465 / 435.565
DANDE 26 Sep 07:32:32 07:40:43 53° 77° (ENE) 07:48:19 436.750
LilacSat-2 26 Sep 07:37:45 07:41:36 81° 102° (ESE) 07:45:27 437.200
AO-85 26 Sep 08:04:45 08:08:31 38° 246° (WSW) 08:12:08 145.980
CUSAT 1 26 Sep 08:05:22 08:12:29 42° 271° (W) 08:18:30 437.405
O/OREOS (USA 219) 26 Sep 08:09:23 08:13:52 67° 108° (ESE) 08:18:26 437.305
GOMX 1 26 Sep 08:12:10 08:16:15 37° 288° (WNW) 08:20:08 467.674
BRITE-PL 26 Sep 08:13:25 08:16:31 17° 295° (WNW) 08:19:29 437.365/2234.400
NOAA 15 26 Sep 08:20:46 08:25:39 39° 290° (WNW) 08:30:30 137.62
STRAND 1 26 Sep 08:27:56 08:32:50 48° 260° (W) 08:37:47 437.568
Cubesat XI-IV 26 Sep 08:29:31 08:34:29 40° 289° (WNW) 08:39:27 437.490
CUTE-I 26 Sep 08:30:22 08:35:18 39° 290° (WNW) 08:40:14 437.470
CINEMA 3 26 Sep 08:32:59 08:36:42 31° 98° (E) 08:40:29 145.822/145.860
Cosmos 2499 26 Sep 08:39:31 08:44:44 22° 84° (E) 08:49:51 435.465 / 435.565
RS-15 26 Sep 08:39:32 08:48:24 24° 260° (W) 08:57:07 29.354- 29.394
DOVE 4 26 Sep 08:43:41 08:47:37 40° 286° (WNW) 08:51:29 437.250
NOAA 18 26 Sep 08:54:37 08:59:22 31° 292° (WNW) 09:04:07 137.9125
PRISM 26 Sep 08:56:20 08:59:55 28° 71° (ENE) 09:03:31 437.425
COMPASS 1 26 Sep 09:04:51 09:08:17 24° 96° (E) 09:11:42 437.405
HO-68 26 Sep 09:13:48 09:20:55 66° 103° (ESE) 09:28:00 435.675
DANDE 26 Sep 09:15:57 09:23:04 32° 274° (W) 09:29:46 436.750
GONETS M04 26 Sep 09:22:24 09:31:02 63° 91° (E) 09:39:44
CUTE 1.7 + AOD 2 26 Sep 09:23:47 09:28:06 86° 283° (WNW) 09:32:23 437.475
CANX-2 26 Sep 09:24:39 09:28:56 72° 284° (WNW) 09:33:13 2200.000
SEEDS 26 Sep 09:28:57 09:33:13 74° 101° (E) 09:37:28 437.485
TIGRISAT 26 Sep 09:45:58 09:46:56 11° 65° (ENE) 09:47:55 435.000
O/OREOS (USA 219) 26 Sep 09:52:20 09:53:45 11° 304° (NW) 09:55:10 437.305
CUBEBUG 2 26 Sep 09:53:25 09:57:41 72° 101° (E) 10:02:05 437.445
AAUSAT CUBESAT 2 26 Sep 09:57:19 10:01:32 83° 102° (ESE) 10:05:42 437.432
BEESAT 3 26 Sep 09:58:47 09:59:29 10° 46° (NE) 10:00:11 437.485
DELFI C3 26 Sep 10:01:52 10:02:38 10° 92° (E) 10:03:24 145.870
FUNcube-1 26 Sep 10:08:44 10:12:47 38° 99° (E) 10:16:53 145.935
CINEMA 3 26 Sep 10:10:49 10:13:38 18° 291° (WNW) 10:16:27 145.822/145.860
UWE-3 26 Sep 10:15:39 10:19:59 84° 105° (ESE) 10:24:24 435.000/436.395/437.385
UNISAT 6 26 Sep 10:22:48 10:26:36 32° 72° (ENE) 10:30:23 437.425
Cosmos 2499 26 Sep 10:30:15 10:37:17 53° 280° (W) 10:44:10 435.465 / 435.565
PRISM 26 Sep 10:32:11 10:35:11 19° 265° (W) 10:38:13 437.425
COMPASS 1 26 Sep 10:40:21 10:43:42 23° 290° (WNW) 10:47:03 437.405
BEESAT 2 26 Sep 10:48:35 10:51:18 17° 50° (NE) 10:54:02 435.950
ZACube-1 26 Sep 10:49:29 10:53:46 63° 284° (WNW) 10:58:07 437.345
Oscar 11 26 Sep 10:51:17 10:55:37 63° 285° (WNW) 10:59:55 145.826/435.025
PHONESAT 2.4 26 Sep 10:55:35 10:57:29 16° 145° (SE) 10:59:24 2401.200-2431.200
ANTELSAT 26 Sep 10:57:43 11:02:01 84° 75° (ENE) 11:06:17 437.575/2403.000
HO-68 26 Sep 11:02:50 11:07:59 22° 299° (WNW) 11:13:08 435.675
JAS-2 26 Sep 11:06:18 11:10:07 16° 58° (ENE) 11:14:10 435.910
QB50P2 26 Sep 11:17:48 11:20:35 17° 68° (ENE) 11:23:22 145.880/145.840
TIGRISAT 26 Sep 11:18:55 11:23:07 56° 260° (W) 11:27:19 435.000
POLYITAN 1 26 Sep 11:20:03 11:22:49 17° 68° (ENE) 11:25:36 437.675
GONETS M04 26 Sep 11:21:26 11:28:23 25° 290° (WNW) 11:35:25
HUMSAT D 26 Sep 11:26:31 11:30:44 60° 101° (E) 11:34:58 437.325/437.525
BEESAT 3 26 Sep 11:33:37 11:37:36 72° 242° (WSW) 11:41:32 437.485
DELFI C3 26 Sep 11:33:49 11:37:42 47° 285° (WNW) 11:41:32 145.870
ESTCUBE 1 26 Sep 11:39:16 11:40:27 11° 91° (E) 11:41:38 437.505/2401.250
FUNcube-1 26 Sep 11:46:01 11:48:42 16° 292° (WNW) 11:51:25 145.935
QB50P1 26 Sep 11:59:19 12:03:23 50° 74° (ENE) 12:07:28 145.935-145.965
DUCHIFAT 1 26 Sep 11:59:23 12:03:20 43° 73° (ENE) 12:07:17 145.980
UNISAT 6 26 Sep 12:00:27 12:03:21 18° 266° (W) 12:06:15 437.425
BUGSAT 1 26 Sep 12:10:13 12:13:25 22° 70° (ENE) 12:16:36 437.445
POPSAT HIP 1 26 Sep 12:12:31 12:16:42 73° 77° (ENE) 12:20:54 437.405
BEESAT 2 26 Sep 12:25:32 12:29:14 37° 246° (WSW) 12:32:56 435.950
NANOSAT C BR1 26 Sep 12:30:09 12:34:20 71° 258° (WSW) 12:38:31 145.865
PHONESAT 2.4 26 Sep 12:30:25 12:33:22 79° 344° (NNW) 12:36:19 2401.200-2431.200
AISAT 26 Sep 12:36:51 12:40:29 25° 96° (E) 12:44:05 437.250
SPROUT 26 Sep 12:43:53 12:46:18 15° 93° (E) 12:48:42 437.525
JAS-2 26 Sep 12:47:50 12:54:03 81° 257° (WSW) 13:01:10 435.910
QB50P2 26 Sep 12:52:18 12:56:06 33° 262° (W) 12:59:55 145.880/145.840
UKube-1 26 Sep 12:54:04 12:56:52 17° 94° (E) 12:59:40 .
POLYITAN 1 26 Sep 12:54:34 12:58:20 32° 262° (W) 13:02:08 437.675
AIST 2 26 Sep 12:55:31 12:57:57 15° 48° (NE) 13:00:23 435.215
M-CUBED/EXP-1 PRIME 26 Sep 13:01:46 13:04:16 20° 102° (ESE) 13:06:47 437.505
HUMSAT D 26 Sep 13:05:12 13:05:48 10° 295° (WNW) 13:06:24 437.325/437.525
ESTCUBE 1 26 Sep 13:13:07 13:17:35 58° 286° (WNW) 13:22:00 437.505/2401.250
DX 1 26 Sep 13:18:07 13:22:16 43° 100° (E) 13:26:23 434.975-435.025
VELOX 1 26 Sep 13:20:02 13:24:26 79° 101° (E) 13:28:49 145.980
YUBILEINY 26 Sep 13:21:16 13:24:56 13° 63° (ENE) 13:28:37 435.215
CUBEBUG 1 26 Sep 13:29:03 13:33:20 59° 285° (WNW) 13:37:34 437.445
50 SAT 26 Sep 13:35:03 13:38:40 57° 285° (WNW) 13:42:15 437.505
DUCHIFAT 1 26 Sep 13:37:21 13:39:11 13° 267° (W) 13:41:02 145.980
QB50P1 26 Sep 13:38:19 13:39:23 11° 268° (W) 13:40:29 145.935-145.965
BUGSAT 1 26 Sep 13:45:17 13:48:39 24° 263° (W) 13:52:00 437.445
Oscar 19 26 Sep 13:52:33 13:57:40 62° 74° (ENE) 14:02:48 437.125/150
PCSat 26 Sep 13:53:14 13:57:16 21° 52° (NE) 14:01:17 145.827
AUBIESAT-1 26 Sep 13:59:41 14:02:57 65° 289° (WNW) 14:06:15 437.475
PHONESAT 2.4 26 Sep 14:07:03 14:09:43 30° 355° (N) 14:12:24 2401.200-2431.200
TISAT 1 26 Sep 14:09:37 14:13:10 26° 97° (E) 14:16:41 437.305
AISAT 26 Sep 14:13:18 14:16:49 24° 291° (WNW) 14:20:21 437.250
SPROUT 26 Sep 14:18:24 14:22:21 38° 287° (WNW) 14:26:16 437.525
UKube-1 26 Sep 14:29:04 14:32:58 34° 288° (WNW) 14:36:52 .
AIST 2 26 Sep 14:32:38 14:36:42 50° 245° (WSW) 14:40:45 435.215
Gurwin Techsat 1B 26 Sep 14:36:25 14:41:43 76° 75° (ENE) 14:47:02 435.225
M-CUBED/EXP-1 PRIME 26 Sep 14:36:39 14:38:40 16° 295° (WNW) 14:40:41 437.505
ITAMSAT 1 26 Sep 14:43:13 14:47:13 23° 67° (ENE) 14:51:14 435.822/435.867
DX 1 26 Sep 14:55:43 14:58:03 14° 294° (WNW) 15:00:23 434.975-435.025
SO-50 26 Sep 14:56:49 14:59:04 13° 108° (ESE) 15:01:20 436.795
Cosmos 2491 26 Sep 15:05:44 15:13:43 41° 87° (E) 15:21:44 435.465 / 435.565
AO-7 26 Sep 15:09:20 15:16:37 35° 62° (ENE) 15:23:52 29.400- 29.500
ITUPSAT 1 26 Sep 15:13:52 15:17:51 26° 96° (E) 15:21:51 437.325
YUBILEINY 26 Sep 15:14:26 15:23:11 79° 83° (E) 15:31:52 435.215
Cosmos 2504 26 Sep 15:15:59 15:22:18 29° 74° (ENE) 15:28:56 435.465 / 435.565
SWISSCUBE 26 Sep 15:27:28 15:32:01 41° 99° (E) 15:36:33 437.505
Oscar 19 26 Sep 15:34:54 15:37:20 13° 268° (W) 15:39:47 437.125/150
PCSat 26 Sep 15:35:42 15:40:57 52° 248° (WSW) 15:46:10 145.827
BEESAT 26 Sep 15:40:33 15:45:14 52° 100° (E) 15:49:53 436.000
PHONESAT 2.4 26 Sep 15:43:24 15:46:14 39° 12° (NNE) 15:49:03 2401.200-2431.200
TISAT 1 26 Sep 15:45:31 15:48:38 21° 291° (WNW) 15:51:44 437.305
